TimeEDT,TemperatureF,Dew PointF,Humidity,Sea Level PressureIn,VisibilityMPH,Wind Direction,Wind SpeedMPH,Gust SpeedMPH,PrecipitationIn,Events,Conditions,WindDirDegrees,DateUTC
12:53 AM,43.0,32.0,65,29.72,10.0,NW,6.9,-,N/A,,Partly Cloudy,320,2014-03-12 04:53:00
1:53 AM,37.9,30.9,76,29.73,6.0,WSW,5.8,-,N/A,,Haze,240,2014-03-12 05:53:00
2:53 AM,39.9,33.1,77,29.72,8.0,Calm,Calm,-,N/A,,Overcast,0,2014-03-12 06:53:00
3:53 AM,39.0,33.1,79,29.71,6.0,Calm,Calm,-,N/A,,Haze,0,2014-03-12 07:53:00
4:53 AM,35.1,30.0,82,29.70,4.0,SE,5.8,-,N/A,,Haze,140,2014-03-12 08:53:00
5:53 AM,37.9,34.0,86,29.69,6.0,SSE,6.9,-,N/A,,Clear,150,2014-03-12 09:53:00
6:53 AM,39.0,35.1,86,29.70,6.0,South,5.8,-,N/A,,Clear,170,2014-03-12 10:53:00
7:53 AM,39.9,36.0,86,29.68,6.0,SSE,5.8,-,N/A,,Mostly Cloudy,150,2014-03-12 11:53:00
8:53 AM,43.0,39.0,86,29.67,9.0,SE,6.9,-,N/A,,Clear,140,2014-03-12 12:53:00
9:53 AM,46.9,37.9,71,29.64,10.0,SE,13.8,-,N/A,,Clear,140,2014-03-12 13:53:00
10:53 AM,46.9,39.9,77,29.60,9.0,SE,15.0,-,N/A,,Clear,140,2014-03-12 14:53:00
11:53 AM,48.0,41.0,77,29.55,9.0,SE,17.3,-,N/A,,Clear,140,2014-03-12 15:53:00
12:53 PM,48.0,39.9,74,29.50,10.0,SE,17.3,-,N/A,,Clear,140,2014-03-12 16:53:00
1:53 PM,48.9,39.9,71,29.43,10.0,SE,19.6,-,N/A,,Clear,140,2014-03-12 17:53:00
2:53 PM,46.9,41.0,80,29.38,8.0,SSE,18.4,-,N/A,,Partly Cloudy,150,2014-03-12 18:53:00
3:53 PM,46.0,41.0,83,29.33,6.0,SSE,19.6,-,N/A,,Haze,150,2014-03-12 19:53:00
4:53 PM,46.9,43.0,86,29.26,5.0,SSE,20.7,33.4,0.00,,Scattered Clouds,160,2014-03-12 20:53:00
5:53 PM,50.0,46.9,89,29.24,3.0,South,20.7,34.5,0.00,Rain,Light Rain,170,2014-03-12 21:53:00
6:01 PM,48.2,44.6,87,29.25,1.5,South,18.4,26.5,0.02,Rain,Light Rain,180,2014-03-12 22:01:00
6:14 PM,51.8,48.2,88,29.25,1.0,South,20.7,31.1,0.13,Rain-Thunderstorm,Heavy Thunderstorms and Rain,190,2014-03-12 22:14:00
6:39 PM,48.2,46.4,93,29.23,0.5,South,15.0,-,0.14,Fog-Rain,Light Rain,190,2014-03-12 22:39:00
6:53 PM,46.9,45.0,93,29.23,0.5,South,15.0,-,0.14,Fog-Rain,Light Rain,190,2014-03-12 22:53:00
7:30 PM,46.4,44.6,93,29.20,1.2,SSW,13.8,20.7,0.03,Rain,Light Rain,200,2014-03-12 23:30:00
7:46 PM,46.4,44.6,93,29.21,0.5,South,16.1,-,0.05,Fog-Rain,Light Rain,180,2014-03-12 23:46:00
7:53 PM,45.0,43.0,93,29.21,0.5,South,13.8,21.9,0.06,Fog-Rain,Light Rain,180,2014-03-12 23:53:00
8:10 PM,46.4,44.6,93,29.18,0.5,South,11.5,-,0.03,Fog-Rain,Rain,190,2014-03-13 00:10:00
8:17 PM,46.4,44.6,93,29.17,0.5,South,12.7,-,0.06,Fog-Rain,Rain,190,2014-03-13 00:17:00
8:53 PM,46.9,45.0,93,29.13,0.5,SSE,13.8,-,0.17,Fog-Rain,Rain,160,2014-03-13 00:53:00
9:53 PM,46.9,45.0,93,29.07,0.5,South,12.7,-,0.12,Fog-Rain,Light Rain,170,2014-03-13 01:53:00
10:53 PM,46.0,45.0,96,29.03,0.2,South,12.7,-,0.02,Fog-Rain,Light Rain,180,2014-03-13 02:53:00
11:02 PM,46.4,44.6,93,29.01,0.2,South,12.7,-,0.00,Fog,Fog,190,2014-03-13 03:02:00
11:21 PM,46.4,44.6,93,29.00,0.2,South,12.7,-,0.00,Fog,Fog,180,2014-03-13 03:21:00
11:28 PM,44.6,42.8,93,28.99,0.2,South,13.8,-,0.00,Fog,Fog,180,2014-03-13 03:28:00
11:40 PM,44.6,42.8,93,28.98,0.5,South,12.7,-,0.00,Fog,Fog,180,2014-03-13 03:40:00
11:47 PM,44.6,42.8,93,28.98,0.2,South,13.8,-,0.00,Fog-Rain,Light Rain,180,2014-03-13 03:47:00
11:48 PM,44.6,42.8,93,28.98,0.2,South,13.8,-,0.00,Fog-Rain,Light Rain,190,2014-03-13 03:48:00
11:53 PM,46.0,44.1,93,28.98,0.5,SSW,12.7,-,0.00,Fog-Rain,Light Rain,200,2014-03-13 03:53:00